Wind_Speed
16 17 13 13 11 12 9 7 6 6 9 12 16 19 21 22 23 25 26 26 27 28 31 31 30 31 32 33 37 42 43 44 39 38 39 40 41 39 30 37 38 39 38 44 51
20 18 16 16 12 11 9 7 6 6 6 7 9 12 14 16 18 21 24 26 27 27 29 32 33 34 34 32 36 41 41 36 34 35 36 35 42 40 32 36 35 36 37 32 57
20 20 17 16 12 10 8 6 5 5 6 7 8 9 10 11 11 14 15 18 22 26 29 31 33 35 36 37 37 37 36 37 38 40 38 39 38 44 35 41 38 36 36 26 40
21 18 16 14 12 11 7 4 3 2 2 4 5 6 7 8 6 10 14 16 18 20 23 28 32 35 37 39 39 40 40 40 39 40 42 42 42 43 48 44 36 37 36 37 45
18 16 16 11 8 7 6 5 3 1 1 3 5 6 8 10 7 14 13 15 17 19 22 26 29 31 34 37 40 42 44 45 45 44 44 44 44 46 46 47 38 38 43 43 38
18 18 14 12 10 6 3 1 2 3 5 6 8 10 11 10 12 14 14 16 17 18 20 23 27 31 31 33 35 39 44 46 48 49 49 49 50 50 44 47 51 41 49 46 45
17 14 14 14 11 8 6 6 5 6 7 9 10 12 13 12 13 16 15 17 17 18 19 21 23 26 29 32 34 39 42 44 45 46 49 51 54 53 46 46 53 54 46 44 55
15 14 14 14 9 8 7 4 3 5 7 9 10 11 12 14 14 14 17 18 18 19 20 22 22 24 27 30 32 36 39 41 38 42 44 43 54 47 46 48 48 51 59 62 60
12 11 11 11 10 9 8 7 4 2 1 1 2 4 5 7 10 11 13 16 18 20 23 23 24 25 27 28 30 35 38 39 37 37 41 42 49 46 46 49 54 50 51 55 57
10 9 9 9 10 9 8 8 9 9 8 7 6 6 7 8 9 8 11 12 14 15 18 24 27 28 29 30 31 31 35 38 40 33 26 26 34 48 48 47 50 52 53 52 52
12 11 10 10 9 10 10 9 10 10 11 11 10 10 9 11 11 12 13 14 16 15 18 22 24 25 28 33 36 38 38 39 37 34 31 33 37 41 32 43 51 51 52 52 54
15 13 13 13 12 11 13 13 13 13 15 13 14 13 12 13 12 14 16 18 19 21 22 24 24 27 30 33 34 36 38 41 42 40 42 42 41 35 36 46 48 41 43 46 50
18 16 15 15 15 15 15 16 16 17 16 19 17 16 15 15 16 17 17 20 21 24 27 28 28 30 31 33 33 39 40 39 41 43 41 49 54 43 41 43 49 44 40 43 43
18 17 15 16 15 16 17 17 18 19 18 16 18 17 17 17 16 21 21 21 22 24 28 30 31 34 36 34 32 40 39 42 40 39 35 29 41 50 52 52 53 49 40 43 43
18 18 19 17 17 16 15 19 19 18 20 17 15 20 21 18 21 22 20 21 24 26 30 28 32 35 39 38 29 31 35 36 36 40 39 42 39 43 44 48 47 37 31 35 40
19 18 18 18 16 17 17 19 19 16 20 23 22 21 19 21 20 23 28 23 24 26 28 28 27 30 38 38 35 30 36 42 38 40 44 39 44 44 36 43 45 37 34 29 34
21 19 20 17 15 18 19 19 17 17 16 18 25 24 22 22 26 27 29 31 31 36 38 38 39 41 36 43 38 43 38 46 43 44 42 29 34 46 32 33 36 31 37 37 41
21 19 19 17 16 17 18 18 17 19 20 27 28 24 24 24 27 27 26 26 26 31 38 43 45 36 38 43 49 45 45 45 47 45 41 36 26 23 24 26 28 26 28 39 46
23 20 19 18 17 19 19 20 20 20 24 26 21 26 26 26 34 31 30 28 31 35 38 43 48 44 43 52 35 43 47 39 30 32 44 43 35 27 29 26 35 40 26 34 42
28 23 22 20 21 21 20 21 23 24 27 24 22 24 26 26 30 31 30 31 38 43 48 52 55 50 47 50 51 41 39 32 37 42 44 43 42 38 30 31 30 23 23 35 45
34 30 28 24 23 23 21 22 23 26 29 28 25 27 27 28 28 28 29 30 39 42 44 49 49 45 37 39 43 44 33 31 29 29 39 38 25 19 24 29 30 28 34 28 36
38 35 30 31 26 26 25 26 25 23 28 28 30 28 28 28 27 28 29 33 36 43 45 43 41 32 27 29 27 30 31 34 33 31 26 34 40 26 27 37 34 25 28 34 38
40 40 37 34 30 29 29 28 29 29 27 28 29 29 28 27 30 27 29 32 36 41 44 41 39 34 23 21 27 23 25 32 35 34 34 37 36 35 30 32 37 25 40 44 37
41 42 41 37 33 32 29 29 28 30 32 33 29 28 29 29 28 29 29 32 35 39 40 32 27 25 22 17 24 29 26 27 30 34 30 36 18 25 31 36 36 39 30 32 36
42 40 43 36 36 36 36 33 29 28 31 33 29 30 28 27 27 28 29 32 33 36 34 27 21 22 23 22 23 27 31 32 35 31 32 24 35 27 27 32 34 38 42 42 33
41 37 39 36 38 38 36 35 33 27 30 29 32 28 27 27 27 27 29 30 30 31 28 24 20 22 19 22 24 26 26 23 17 18 25 31 29 27 32 34 35 41 49 55 47
38 41 38 35 37 38 37 34 30 29 26 30 30 26 25 25 25 28 28 29 28 24 19 19 20 22 18 20 21 16 19 23 25 18 25 26 26 33 30 32 35 36 40 42 50
Wind_Direction
44 48 58 78 114 131 140 155 180 208 220 225 228 233 238 242 243 245 245 245 245 242 243 246 246 247 248 240 243 244 243 242 242 245 246 241 240 238 255 260 263 257 225 241 248
45 47 57 80 101 118 130 149 164 183 201 215 225 231 236 240 244 244 243 244 245 244 241 243 245 246 248 246 244 245 245 244 242 245 247 244 236 225 243 258 262 265 271 261 258
40 42 52 70 90 112 128 148 167 183 203 215 224 229 232 235 239 249 253 249 247 245 244 244 245 245 246 248 249 247 249 248 244 245 244 242 238 225 223 247 252 265 271 257 262
46 45 47 64 76 83 92 114 145 193 222 231 240 242 245 244 254 261 257 257 255 254 252 250 248 246 244 245 248 249 252 248 244 243 243 243 241 235 220 235 252 255 258 255 249
38 41 48 48 59 80 91 95 103 129 232 256 255 260 262 261 259 263 268 267 266 264 260 258 257 255 253 249 248 246 246 249 250 247 245 244 241 242 238 239 236 245 253 262 265
45 43 38 42 46 38 34 25 263 254 253 256 261 263 265 273 269 267 265 267 269 269 270 265 260 260 262 262 256 251 248 245 245 248 251 250 243 239 241 240 228 237 253 248 253
42 52 57 57 45 27 5 339 313 292 281 273 269 270 270 268 261 269 267 270 270 271 272 271 274 270 264 262 262 258 252 246 244 249 253 257 255 250 248 241 239 226 235 254 259
23 28 32 39 52 61 59 51 355 313 300 289 278 274 274 266 268 253 264 267 269 272 273 274 272 271 271 268 265 263 261 256 250 251 249 259 251 250 253 255 243 237 238 239 255
5 9 11 12 16 24 23 17 8 5 355 318 293 264 291 289 280 276 276 267 267 269 271 272 272 271 271 271 269 267 267 264 258 258 258 259 257 244 249 255 254 243 243 244 248
339 343 348 350 347 347 349 346 344 338 332 324 311 293 282 288 275 272 263 269 270 274 269 271 274 275 275 274 272 267 265 261 258 249 251 269 268 248 248 250 251 251 248 247 248
335 324 316 318 323 322 323 323 320 315 318 312 307 299 294 295 293 293 294 290 289 280 272 270 272 276 273 272 271 268 264 259 258 248 233 235 238 245 254 253 247 249 252 253 250
329 325 318 307 301 299 298 299 300 299 299 301 297 290 287 288 287 288 288 288 288 289 287 280 281 276 273 272 270 266 266 265 263 250 228 227 233 227 228 237 254 257 252 248 248
327 325 321 313 307 301 291 289 290 290 288 291 287 284 278 282 284 285 282 286 285 285 285 283 285 287 287 281 272 270 273 271 267 262 255 240 234 223 227 241 257 256 258 255 252
318 318 320 318 312 305 301 297 293 291 291 288 287 277 279 281 281 286 285 283 282 278 277 279 287 285 283 280 280 276 278 283 273 267 263 251 251 242 236 240 251 262 252 249 251
328 313 308 308 310 306 303 296 294 296 296 294 288 274 278 279 286 274 277 276 285 286 285 288 285 284 281 286 282 272 281 278 283 265 253 256 249 263 249 250 257 254 236 236 243
323 327 313 302 302 306 307 303 300 299 299 296 297 293 280 283 280 283 289 283 281 285 280 289 288 283 279 285 270 262 258 267 269 267 260 268 260 266 268 261 251 247 237 247 250
318 318 321 304 295 300 302 302 302 297 291 283 292 306 301 299 298 300 301 303 309 311 309 307 303 295 286 284 286 270 243 260 252 257 274 273 263 258 271 264 254 236 229 235 253
311 307 312 313 304 299 300 301 300 288 275 265 279 298 295 286 284 280 281 285 288 290 289 291 290 281 274 276 281 279 276 274 275 254 273 271 264 282 255 248 231 250 231 229 243
306 307 302 310 308 304 304 297 294 283 282 286 291 286 281 280 278 278 282 276 276 279 277 282 282 286 284 286 280 281 290 277 269 265 266 262 264 282 262 255 241 239 217 225 234
298 297 298 307 309 306 299 292 292 289 289 298 290 282 279 277 272 276 277 283 278 279 284 287 292 290 278 277 281 280 282 274 277 278 272 263 274 272 265 245 241 210 220 242 239
295 295 292 294 299 301 296 292 286 282 289 293 292 292 286 283 275 271 277 280 279 288 289 294 295 297 285 275 269 271 275 259 261 264 261 268 262 238 252 266 254 232 218 237 249
292 292 292 297 298 296 297 296 293 286 279 286 290 290 287 282 281 279 282 286 290 294 296 299 302 296 286 261 267 276 267 253 271 272 261 260 260 263 265 253 250 247 232 227 241
289 289 292 295 295 294 298 300 299 291 295 288 288 286 286 285 282 279 286 293 296 297 303 309 302 297 294 272 261 262 249 257 264 264 262 267 268 259 250 252 246 251 256 248 224
286 284 292 290 289 295 294 296 298 297 295 291 291 284 286 285 284 290 294 297 299 300 303 305 298 290 296 274 254 261 256 247 269 267 273 265 287 259 266 260 270 269 254 236 231
293 289 283 285 288 293 295 298 297 293 292 293 290 287 286 286 284 289 296 299 302 301 303 303 292 287 292 290 279 271 267 268 274 272 273 276 261 271 284 278 268 264 251 255 245
295 295 286 284 283 286 288 291 299 297 296 293 290 287 290 290 291 298 299 302 304 301 303 299 299 294 296 289 279 277 283 275 266 267 260 267 267 255 260 261 261 261 250 250 251
291 293 291 283 282 286 288 292 299 297 299 297 292 289 288 289 295 297 301 303 304 303 297 300 304 304 317 288 283 290 288 277 269 263 274 268 267 264 260 262 253 245 256 259 261
Height
5749 5746 5745 5745 5748 5752 5757 5760 5763 5766 5768 5770 5773 5775 5778 5781 5784 5787 5790 5794 5795 5797 5800 5801 5804 5806 5807 5812 5812 5814 5816 5820 5828 5831 5835 5839 5838 5840 5841 5841 5846 5849 5855 5853 5851
5753 5751 5750 5749 5752 5755 5758 5761 5763 5765 5767 5769 5770 5772 5774 5776 5779 5781 5784 5786 5789 5791 5794 5796 5797 5799 5802 5805 5806 5807 5812 5818 5821 5823 5824 5829 5829 5833 5832 5833 5836 5840 5843 5847 5840
5758 5756 5754 5754 5754 5756 5758 5760 5762 5763 5765 5767 5769 5770 5772 5773 5776 5776 5778 5780 5782 5784 5787 5789 5791 5793 5794 5795 5799 5802 5805 5808 5812 5814 5814 5817 5820 5824 5823 5822 5826 5830 5834 5841 5835
5763 5760 5759 5758 5758 5758 5759 5761 5762 5763 5764 5766 5768 5769 5771 5773 5776 5775 5776 5777 5779 5780 5781 5782 5784 5785 5787 5789 5790 5792 5794 5797 5803 5803 5805 5807 5811 5813 5816 5815 5817 5819 5821 5825 5831
5767 5765 5763 5761 5761 5760 5760 5761 5762 5763 5764 5765 5766 5767 5769 5771 5772 5772 5773 5774 5774 5775 5776 5777 5778 5778 5779 5781 5782 5785 5787 5788 5790 5793 5795 5797 5800 5804 5807 5813 5810 5809 5810 5813 5817
5770 5768 5766 5764 5763 5763 5763 5762 5762 5762 5762 5763 5764 5764 5766 5768 5768 5768 5769 5770 5770 5770 5771 5771 5771 5772 5775 5776 5777 5777 5778 5782 5783 5784 5784 5785 5788 5790 5806 5805 5803 5800 5798 5805 5807
5772 5771 5769 5766 5764 5764 5763 5763 5762 5761 5761 5761 5761 5761 5762 5763 5764 5763 5764 5764 5765 5765 5765 5765 5766 5766 5766 5768 5769 5769 5770 5773 5777 5778 5778 5775 5774 5783 5796 5795 5796 5797 5794 5791 5797
5773 5771 5770 5768 5766 5765 5764 5762 5761 5760 5759 5758 5758 5758 5758 5757 5757 5759 5758 5758 5759 5759 5759 5759 5759 5759 5759 5760 5761 5761 5762 5763 5772 5770 5773 5768 5766 5780 5781 5777 5785 5790 5791 5787 5786
5773 5771 5769 5768 5766 5764 5762 5761 5760 5759 5758 5757 5757 5757 5756 5755 5754 5753 5752 5753 5753 5753 5752 5752 5752 5752 5752 5752 5753 5752 5753 5754 5760 5762 5761 5759 5758 5770 5769 5765 5767 5777 5780 5782 5786
5772 5770 5768 5766 5765 5763 5761 5760 5759 5758 5756 5755 5754 5755 5754 5753 5751 5750 5750 5749 5748 5747 5747 5746 5745 5746 5746 5745 5746 5745 5743 5743 5745 5752 5748 5747 5746 5754 5756 5756 5758 5762 5766 5769 5773
5770 5768 5766 5764 5762 5762 5760 5758 5758 5756 5754 5753 5752 5750 5749 5748 5747 5746 5745 5744 5743 5743 5742 5740 5740 5741 5740 5738 5736 5735 5734 5733 5736 5737 5735 5735 5736 5738 5742 5743 5748 5753 5755 5756 5760
5769 5766 5763 5761 5760 5758 5756 5754 5753 5753 5751 5749 5748 5746 5745 5744 5743 5741 5740 5740 5739 5737 5735 5735 5734 5733 5732 5730 5728 5726 5724 5724 5724 5726 5724 5725 5725 5730 5731 5734 5736 5739 5742 5745 5748
5766 5763 5760 5758 5756 5754 5752 5749 5747 5746 5747 5744 5743 5742 5741 5739 5738 5737 5736 5733 5732 5731 5729 5728 5728 5725 5723 5721 5720 5717 5715 5715 5713 5714 5715 5716 5714 5719 5720 5720 5724 5729 5733 5734 5738
5763 5760 5757 5754 5752 5750 5747 5744 5742 5740 5740 5742 5739 5736 5735 5734 5734 5729 5729 5729 5727 5725 5722 5722 5722 5718 5716 5714 5714 5708 5710 5706 5704 5703 5700 5704 5700 5708 5712 5712 5713 5716 5720 5722 5724
5759 5756 5753 5749 5747 5745 5744 5740 5737 5735 5734 5734 5734 5730 5730 5730 5727 5726 5726 5722 5720 5718 5714 5716 5712 5710 5706 5705 5704 5700 5698 5696 5695 5692 5690 5692 5691 5699 5700 5699 5701 5706 5707 5711 5712
5755 5751 5748 5746 5743 5740 5738 5735 5733 5732 5728 5724 5725 5724 5724 5723 5723 5719 5714 5716 5714 5710 5708 5706 5705 5701 5697 5695 5693 5691 5686 5683 5683 5681 5678 5685 5685 5684 5689 5692 5693 5696 5697 5700 5702
5750 5747 5743 5740 5738 5734 5732 5731 5730 5726 5725 5720 5717 5716 5716 5716 5713 5711 5707 5703 5701 5696 5692 5690 5688 5688 5686 5680 5685 5682 5675 5671 5669 5669 5667 5677 5671 5672 5682 5681 5681 5681 5685 5688 5688
5744 5741 5738 5735 5731 5729 5726 5726 5724 5721 5718 5714 5712 5711 5710 5710 5708 5705 5703 5701 5700 5696 5688 5682 5678 5684 5678 5673 5672 5671 5668 5663 5656 5657 5660 5664 5660 5668 5670 5672 5674 5672 5674 5677 5678
5739 5736 5732 5730 5727 5724 5721 5719 5718 5715 5712 5708 5706 5703 5704 5703 5697 5696 5695 5693 5691 5683 5679 5674 5669 5672 5669 5660 5658 5658 5658 5655 5647 5647 5649 5653 5657 5657 5660 5662 5664 5659 5665 5666 5668
5734 5732 5727 5723 5720 5718 5717 5713 5709 5706 5703 5701 5698 5697 5694 5694 5692 5689 5688 5687 5682 5676 5670 5666 5658 5660 5659 5652 5649 5649 5645 5645 5642 5640 5640 5642 5648 5651 5651 5652 5654 5652 5655 5657 5659
5725 5724 5721 5720 5714 5712 5709 5707 5703 5699 5694 5692 5690 5687 5685 5682 5681 5682 5679 5679 5673 5668 5663 5656 5650 5646 5643 5642 5638 5636 5635 5634 5634 5634 5633 5633 5641 5641 5643 5646 5647 5647 5645 5650 5651
5717 5713 5714 5709 5709 5703 5701 5698 5696 5693 5688 5685 5681 5680 5677 5674 5673 5672 5670 5667 5664 5656 5650 5646 5638 5633 5632 5631 5628 5627 5626 5625 5626 5626 5623 5624 5630 5634 5637 5638 5639 5635 5639 5637 5642
5707 5702 5702 5701 5699 5695 5692 5691 5686 5683 5681 5677 5674 5671 5669 5667 5663 5663 5661 5659 5653 5646 5639 5635 5628 5623 5625 5624 5621 5621 5621 5621 5619 5618 5619 5619 5620 5624 5625 5627 5632 5631 5631 5630 5629
5699 5695 5691 5691 5688 5686 5685 5682 5679 5673 5670 5667 5666 5663 5660 5658 5657 5653 5652 5649 5643 5636 5631 5628 5623 5619 5617 5617 5616 5615 5615 5615 5612 5613 5610 5612 5611 5617 5616 5618 5619 5620 5625 5624 5623
5686 5687 5683 5682 5678 5676 5674 5673 5671 5668 5664 5660 5659 5654 5652 5651 5649 5646 5643 5639 5635 5628 5623 5620 5618 5615 5613 5611 5610 5609 5609 5609 5605 5607 5604 5606 5606 5610 5610 5610 5609 5610 5612 5611 5611
5676 5675 5673 5673 5669 5667 5665 5663 5661 5659 5656 5655 5649 5648 5645 5642 5640 5638 5635 5630 5627 5621 5617 5614 5613 5610 5609 5606 5603 5602 5602 5599 5599 5598 5596 5597 5598 5597 5597 5598 5598 5598 5597 5601 5605
5667 5664 5663 5663 5659 5657 5656 5654 5653 5650 5650 5645 5642 5640 5637 5635 5634 5631 5627 5622 5618 5615 5611 5609 5607 5605 5604 5599 5598 5600 5595 5593 5592 5593 5590 5590 5592 5589 5588 5586 5586 5584 5586 5589 5590